OBJECT E, 63523

Orbit data source: Space-Track

You're viewing an Uncataloged Satellite

Recently launched and/or uncataloged satellites may have evolving metadata. Metadata may include but not limited to: Owner, Maufacturer, Bus, Motor, and Mission.

OBJECT E, 63523 is a satellite owned by Tsinghua (CN) in LEO that was launched on Thu, 29 Apr 2021 UTC via a CHANG ZHENG 7 launch vehicle from the Wenchang Satellite Launch Center (WSC). Unknown objects in Earth's orbit typically refer to objects detected orbiting the Earth but have not yet been identified or cataloged. These objects could be anything from previously untracked satellites, spent rocket stages, debris from satellite collisions, or even natural meteoroids temporarily captured by Earth's gravity.

Loading next visibility...
Identifier
63523, 2021-035E
Orbit
LEO
Country
Flag of CNCN / PRC
Related business
Manufacturer
Tsinghua
Mission
Amateur Imaging
Bus & Motor
NAXING, Unknown motor
Mass
20 kg wet, 20 kg dry
Launch date (UTC)
2021-04-29 (5 years ago)
Launch vehicle
CHANG ZHENG 7
Launch site
Wenchang Satellite Launch Center (WSC)
Object type
Unknown
Shape & HBR
Box, 0.4 m
Radar Cross Section
0.240 m², Medium (>0.1 m² and < 1m²)

Expand to show TLE details & history
Last TLE update: 10 hours ago

TLE from 10 hours ago
0 OBJECT E
1 63523U 21035E   26131.96205054  .00045662  00000-0  35726-3 0  9993
2 63523  41.4544 149.4920 0006868  82.9404 277.2219 15.70757725 62708
Epoch: 2026-05-11T23:05Z
TLE epoch observation values (Epoch: 2026-05-11T23:05:21.166Z)
Latitude
-0.00003°
Longitude
-66.58948°
Altitude
355.748 km
Speed
7.698 km/s
True Right ascension
09h 57m 58s
True Declination
0° 00' 00"
Sunlit
Object was in daylight at epoch
Visualization orbit readout
Latitude
Unknown
Longitude
Unknown
Altitude
Unknown
Speed
Unknown
Apparent Right ascension
Unknown
Apparent Declination
Unknown
Sunlit
N/A
Visualization observer readout
Local Sidereal Time
17:25:19
Azimuth
Unknown
Elevation
Unknown
Doppler factor
Unknown
Orbital elements
Apogee altitude
363.602 km
Perigee altitude
354.348 km
Semi-major axis
6,737.112 km
Eccentricity
0.00069
Inclination
41.4544°
RAAN
149.492°
Arg. of periapsis
82.9404°
True anomaly
277.14381°
Mean anomaly
277.2219°
Eccentric anomaly
277.18286°
Mean motion
3.92494 °/min
Orbital period
91.72 mins
BSTAR
0.00035726
Loading maneuver chart data...
Computing Atmospheric mass density...
Loading historical data...
Loading historical data...
Loading historical data...
Loading historical data...
Loading historical data...
Loading historical data...
Loading historical data...

Documentation

Showing up to 5 results
|